This demonstration page uses our WeatherBlox Daily Observations layout. Learn more.

36.17497, -115.13722

Hourly Observations for April 8, 2018

Temp ( °F °C ) Dew Point ( °F °C ) Humidity (%) Winds ( mph kmh ) Pressure ( in mb ) Visibility ( mi km ) Precip ( " mm )
12:53 am 00:53 Clear 75 23.9 15 -9.4 10 10 NW 10 17 29.71 1006 10 16.09344 0 0
1:53 am 01:53 Clear 72 22.2 13 -10.6 10 10 N 5 7 29.74 1007 10 16.09344 0 0
2:53 am 02:53 Clear 71 21.7 11 -11.7 10 10 NNW 14 22 29.74 1007 10 16.09344 0 0
3:53 am 03:53 Clear 69 20.6 10 -12.2 10 10 NNW 14 22 29.77 1008 10 16.09344 0 0
4:53 am 04:53 Clear 68 20 8 -13.3 9 9 WNW 10 17 29.8 1009 10 16.09344 0 0
5:53 am 05:53 Clear 68 20 3 -16.1 7 7 NW 15 24 29.83 1010 10 16.09344 0 0
6:53 am 06:53 Sunny 62 16.7 9 -12.8 12 12 NNW 17 28 29.85 1011 10 16.09344 0 0
7:53 am 07:53 Sunny 67 19.4 11 -11.7 11 11 N 15 24 29.88 1012 10 16.09344 0 0
8:53 am 08:53 Sunny 71 21.7 5 -15 7 7 N 13 20 29.91 1013 10 16.09344 0 0
9:53 am 09:53 Sunny 74 23.3 -2 -18.9 5 5 NNW 23 37 29.91 1013 10 16.09344 0 0
10:53 am 10:53 Sunny 76 24.4 -2 -18.9 4 4 N 24 39 29.91 1013 10 16.09344 0 0
11:53 am 11:53 Sunny 78 25.6 -3 -19.4 4 4 N 24 39 29.91 1013 10 16.09344 0 0
12:53 pm 12:53 Sunny 80 26.7 -3 -19.4 4 4 NNW 23 37 29.91 1013 10 16.09344 0 0
1:53 pm 13:53 Sunny 82 27.8 -5 -20.6 3 3 N 20 31 29.91 1013 10 16.09344 0 0
2:53 pm 14:53 Sunny 82 27.8 -11 -23.9 2 2 N 17 28 29.88 1012 10 16.09344 0 0
3:53 pm 15:53 Sunny 84 28.9 -11 -23.9 2 2 N 15 24 29.85 1011 10 16.09344 0 0
4:53 pm 16:53 Sunny 84 28.9 -13 -25 2 2 N 14 22 29.85 1011 10 16.09344 0 0
5:53 pm 17:53 Sunny 83 28.3 -10 -23.3 2 2 N 16 26 29.85 1011 10 16.09344 0 0
6:53 pm 18:53 Sunny 81 27.2 -9 -22.8 3 3 N 8 13 29.85 1011 10 16.09344 0 0
7:53 pm 19:53 Clear 76 24.4 1 -17.2 5 5 ESE 7 11 29.88 1012 10 16.09344 0 0
8:53 pm 20:53 Clear 73 22.8 4 -15.6 6 6 NW 5 7 29.91 1013 10 16.09344 0 0
9:53 pm 21:53 Clear 69 20.6 8 -13.3 9 9 NW 5 7 29.94 1014 10 16.09344 0 0
10:53 pm 22:53 Clear 67 19.4 3 -16.1 8 8 N 9 15 29.94 1014 10 16.09344 0 0
11:53 pm 23:53 Clear 69 20.6 -3 -19.4 5 5 N 13 20 29.94 1014 10 16.09344 0 0

Powered by AerisWeather